Lapse_Rate
5.3 5.1 5.5 5.5 5.5 5.4 5.5 5.6 5.6 5.6 5.4 5.4 5.5 5.4 5.4 5.9 6.0 6.1 6.2 6.1 6.1 6.4 6.9 7.0 6.9 7.0 6.9 7.0 7.3 7.3 7.1 7.2 7.2 7.1 7.0 7.0 6.7 6.6 6.9 8.3 8.5 8.4 8.6 8.9 8.6 8.5 8.3
5.4 5.4 5.5 5.6 5.7 5.7 5.6 5.6 5.6 5.6 5.5 5.5 5.5 5.6 5.3 5.7 5.9 6.0 6.2 6.1 6.0 6.2 6.7 6.8 6.8 6.7 6.7 7.2 6.8 7.3 7.1 7.3 7.2 7.1 7.0 6.6 6.7 6.8 6.7 7.3 7.8 8.3 8.1 8.3 8.8 9.0 8.6
5.4 5.5 5.7 5.6 5.6 5.7 5.8 5.8 5.7 5.7 5.8 5.6 5.5 5.5 5.6 5.6 5.8 5.7 6.0 6.1 6.1 6.3 6.5 6.6 6.6 6.7 6.8 7.7 6.9 6.8 7.2 7.3 7.3 7.0 6.6 6.6 6.6 6.5 6.7 7.0 7.6 8.0 8.1 8.4 9.1 8.8 8.4
5.7 5.6 5.6 5.7 5.7 5.9 6.0 6.1 6.1 6.0 5.9 5.8 5.7 5.6 5.6 5.7 5.6 5.6 5.8 5.9 6.0 6.3 6.4 6.5 6.5 6.5 7.2 7.0 7.0 7.0 7.0 7.1 7.1 7.1 6.8 6.5 6.6 6.9 6.5 6.7 7.4 7.9 8.5 8.8 9.0 8.6 7.5
5.4 5.5 5.6 5.7 5.7 5.8 6.1 6.3 6.2 6.3 6.2 6.0 5.9 5.7 5.6 5.7 5.7 5.7 5.8 5.8 5.8 6.1 6.1 6.2 6.3 6.3 7.4 7.1 7.2 7.0 6.9 6.9 6.8 6.9 6.8 6.7 6.9 7.0 6.6 7.0 7.9 8.6 8.9 9.2 8.8 8.6 8.3
5.7 5.5 5.5 5.5 5.7 5.8 5.8 6.0 5.8 5.7 5.8 5.9 5.8 5.7 5.6 5.5 5.6 5.6 5.7 5.8 5.8 5.9 5.7 6.1 6.1 6.3 6.6 6.7 6.9 7.2 7.0 6.7 6.2 6.6 6.7 6.8 6.7 6.7 6.9 7.1 7.8 9.3 8.8 9.3 9.0 8.8 8.9
4.9 4.8 4.8 4.9 5.0 5.2 5.1 5.0 5.3 5.2 5.3 5.5 5.6 5.6 5.6 5.6 5.6 5.5 5.7 5.9 5.8 5.2 5.4 6.0 5.3 6.5 6.0 6.0 6.5 6.8 7.0 6.6 6.1 6.1 6.5 6.4 6.6 7.0 7.3 7.7 8.2 9.3 9.0 8.8 9.0 8.5 8.6
4.6 4.6 4.7 4.8 4.8 4.7 4.7 4.7 4.6 4.6 4.6 4.7 5.0 5.4 5.5 5.5 5.4 5.4 5.6 5.6 4.9 4.9 5.3 6.1 6.1 6.4 6.4 5.7 5.8 6.8 6.3 6.5 6.1 6.5 6.8 6.6 7.1 7.3 7.6 8.0 8.4 9.0 9.0 9.3 9.1 8.6 8.7
4.5 4.6 4.7 4.9 5.0 5.0 4.8 4.7 4.6 4.5 4.6 4.4 4.5 4.7 5.1 5.4 5.5 5.4 5.3 5.7 5.1 5.3 4.5 6.7 6.7 6.5 6.9 6.1 6.4 6.2 6.3 6.6 6.2 6.4 6.9 7.1 7.7 7.8 7.7 8.0 8.4 8.5 8.7 9.4 9.4 8.8 8.8
4.4 4.5 4.7 4.7 4.9 5.0 5.0 4.9 4.8 4.8 4.6 4.4 4.2 4.2 4.4 4.9 5.4 5.3 5.3 5.4 4.8 4.8 4.5 5.0 6.3 6.4 7.0 6.3 5.9 6.9 6.2 6.6 6.3 6.6 7.1 7.6 7.8 8.2 8.2 7.9 8.4 8.3 9.1 9.1 9.0 9.2 9.1
4.4 4.5 4.5 4.3 4.2 4.2 4.4 4.5 4.5 4.4 4.6 4.4 3.9 3.9 4.0 4.0 4.6 5.0 4.7 5.2 4.1 5.4 5.4 6.7 6.9 5.9 6.9 6.3 6.7 7.3 6.9 6.4 6.3 7.1 7.3 7.3 7.9 8.1 8.0 8.1 8.5 8.9 8.9 8.9 9.3 9.4 9.3
5.4 5.1 5.0 4.8 4.8 4.7 4.4 4.4 4.4 4.3 4.4 4.8 4.1 4.0 3.8 3.8 4.4 4.9 5.1 4.4 5.8 5.8 5.1 6.5 6.7 6.4 6.6 6.3 6.0 7.0 6.9 6.5 6.6 7.1 7.6 7.8 8.1 8.3 8.0 8.2 8.6 9.3 8.7 8.8 8.9 9.3 9.1
6.0 5.9 5.7 5.9 6.0 5.8 5.7 5.4 5.3 5.2 5.2 5.2 5.2 4.7 4.4 4.2 4.6 4.6 4.5 5.0 5.9 5.3 6.1 6.5 6.6 6.2 6.6 6.3 6.1 6.7 6.5 6.4 6.3 6.6 6.8 7.5 8.0 8.4 8.3 8.4 8.8 9.1 9.3 9.3 9.2 9.1 8.6
6.1 6.1 6.2 6.4 6.6 6.6 6.6 6.4 6.2 6.3 6.3 6.3 6.5 5.8 5.5 5.3 5.0 5.2 4.8 5.4 6.1 4.5 5.5 7.8 8.0 7.4 6.6 6.8 6.5 6.4 6.7 6.4 6.5 7.0 7.5 7.8 8.0 8.3 8.4 8.2 9.2 8.8 8.8 8.9 8.4 8.3 8.7
6.3 6.5 6.7 6.8 6.7 6.5 6.4 6.2 6.1 6.0 6.2 5.9 5.8 6.0 5.6 5.7 5.4 5.6 5.7 5.8 4.8 4.8 6.3 7.2 7.7 8.6 8.5 7.3 7.3 6.7 6.9 6.6 6.8 7.1 7.3 8.0 8.1 8.7 8.6 8.5 8.6 9.3 8.6 8.8 9.1 8.3 7.6
6.8 6.6 6.7 6.6 6.6 6.5 6.4 6.3 6.2 6.0 6.1 5.9 5.0 5.0 5.0 5.3 5.1 5.7 5.6 5.6 5.2 5.1 6.4 7.4 8.5 8.5 8.6 8.2 7.9 7.3 7.0 6.9 6.9 7.2 7.8 8.2 8.9 8.9 9.1 8.7 8.5 8.7 9.0 8.8 9.1 8.7 8.0
6.7 6.5 6.4 6.5 6.4 6.3 6.2 6.1 6.1 5.9 5.6 5.3 4.9 4.8 4.9 4.8 4.8 5.2 5.2 5.6 6.5 6.5 6.5 7.7 7.9 7.7 8.8 8.8 8.6 7.9 7.4 7.5 7.4 7.6 7.8 8.2 8.7 8.8 8.9 8.7 8.7 8.6 8.7 8.4 8.1 9.3 8.5
6.4 6.4 6.4 6.3 6.3 6.2 6.1 6.0 5.9 5.8 5.4 5.4 5.0 4.8 4.7 5.3 4.9 5.1 5.2 7.1 7.0 6.0 6.5 7.0 8.2 8.3 8.0 8.5 8.4 7.9 8.1 8.0 8.2 8.0 7.8 8.1 8.6 8.6 8.6 9.0 8.9 8.9 9.1 8.8 8.8 8.8 9.2
6.4 6.5 6.3 6.1 5.9 5.8 5.9 5.8 5.5 5.3 5.4 5.4 5.3 5.0 5.1 5.4 5.2 5.0 6.0 6.2 5.9 5.8 6.0 6.8 7.8 8.4 8.6 7.7 7.0 6.4 6.9 8.3 8.8 8.8 8.0 8.3 8.4 8.6 8.5 8.6 8.6 8.7 8.6 8.6 9.0 9.1 9.1
6.8 6.4 6.0 5.7 5.5 5.4 5.6 5.0 5.0 5.1 5.4 5.7 5.5 5.5 5.3 5.4 5.5 5.7 5.8 6.8 6.5 6.6 5.9 6.7 7.7 8.3 8.7 7.9 7.1 6.1 7.2 7.7 8.7 8.1 8.4 8.9 8.5 7.9 7.9 8.7 8.5 8.9 9.0 9.3 8.7 8.6 8.4
6.1 5.8 5.3 5.1 4.8 5.2 5.2 4.8 4.9 5.3 5.6 6.0 6.0 5.6 5.4 4.9 4.9 5.3 5.2 6.0 6.1 6.1 6.0 6.4 7.5 8.1 8.3 8.0 7.4 6.8 6.9 6.7 7.2 7.7 8.3 8.3 7.5 7.9 8.5 9.0 9.0 9.0 8.8 9.0 9.2 7.8 8.2
5.2 5.2 5.1 5.1 5.0 4.8 4.6 5.1 5.1 5.7 5.8 6.4 6.3 5.9 5.7 5.6 5.6 5.5 5.7 5.7 6.0 6.3 6.5 6.2 7.0 7.5 7.9 7.9 7.8 6.2 6.0 5.9 6.7 7.2 7.6 8.2 7.7 7.7 8.0 8.7 9.0 8.9 8.8 9.2 9.2 9.0 9.0
5.0 5.2 5.3 5.2 5.0 4.8 4.9 5.0 5.2 5.6 6.6 6.8 6.6 6.5 6.3 6.3 5.9 5.7 5.7 5.9 6.2 6.6 6.9 6.9 7.0 7.5 8.1 7.8 8.5 7.5 7.1 6.6 6.5 6.5 7.2 7.6 7.4 8.2 8.0 8.7 8.7 8.6 8.8 9.2 9.5 9.1 9.2
5.5 5.5 5.7 5.9 6.2 6.3 6.4 6.2 5.9 6.0 6.7 7.0 7.0 6.8 6.8 6.9 6.5 6.2 6.2 6.6 6.4 6.6 6.9 7.2 7.4 7.8 7.7 8.4 8.6 8.1 7.8 6.6 6.2 6.4 6.3 7.3 7.4 8.4 8.4 8.9 7.6 7.8 8.7 8.9 9.2 9.0 9.2
6.1 6.6 6.9 6.8 6.6 6.5 6.6 6.3 6.3 6.1 6.4 7.0 7.2 7.2 6.9 6.9 6.8 6.5 6.6 6.5 6.7 6.9 7.0 7.2 7.6 7.7 8.8 8.3 7.4 7.0 6.3 6.4 6.5 6.4 6.4 6.5 7.1 7.5 8.2 8.2 8.2 8.2 8.2 8.5 8.7 8.6 9.0
7.0 7.1 6.8 6.7 7.0 7.1 7.2 7.2 6.5 6.4 6.4 6.6 7.3 7.2 6.8 6.9 7.0 7.6 7.2 7.3 6.9 7.0 7.1 7.0 7.6 8.4 8.8 8.7 7.4 6.7 6.9 6.9 7.1 7.1 5.9 5.8 6.5 6.8 7.6 7.7 7.2 7.8 8.1 8.5 8.9 8.8 8.6
7.1 7.3 7.2 7.3 7.5 7.5 7.8 7.7 6.8 6.7 6.5 6.3 6.5 7.0 7.0 6.9 7.2 7.4 7.3 7.2 7.2 7.1 7.1 7.5 7.8 7.9 8.2 8.2 7.7 7.2 7.4 7.5 7.3 7.2 6.7 5.7 6.4 6.4 6.8 7.5 7.6 7.7 8.3 9.0 8.8 8.6 8.8
7.6 7.3 7.4 7.7 7.7 7.5 7.6 7.2 6.9 6.7 6.6 6.4 6.7 7.0 7.0 7.0 7.3 7.2 7.4 7.3 7.1 7.2 7.3 7.6 8.0 7.7 7.7 7.7 7.3 7.1 7.2 7.4 8.3 7.9 6.9 6.5 6.3 6.6 6.7 7.3 7.2 8.0 8.6 8.8 8.8 8.9 8.9
7.4 7.3 7.3 7.6 7.7 7.4 7.5 7.2 7.1 6.9 6.7 6.4 6.8 7.0 7.0 7.1 7.5 7.0 7.5 7.2 7.2 7.2 7.3 7.5 7.4 6.9 7.0 7.3 7.3 7.5 8.1 8.0 8.0 7.6 7.3 6.5 6.5 6.5 6.5 7.4 7.8 8.2 8.7 8.7 9.1 9.2 9.2
Wind_Speed
18 18 18 17 17 17 17 16 15 16 15 15 15 16 16 16 17 18 20 20 20 19 18 17 18 21 12 7 13 9 9 10 10 9 12 10 10 11 16 12 8 11 14 11 11 6 4
17 18 19 19 18 18 18 17 17 16 16 17 16 17 18 16 16 18 19 20 20 19 19 16 15 18 10 16 12 15 11 10 12 13 12 11 10 11 9 15 13 7 11 13 14 7 2
19 18 18 17 18 19 17 16 15 15 18 17 17 16 19 19 17 18 20 21 21 20 20 15 14 8 11 21 12 6 10 13 14 14 13 9 7 8 13 14 12 11 14 16 13 9 3
21 21 20 19 18 18 18 17 16 14 14 17 19 17 17 19 20 20 20 22 23 22 20 15 11 7 10 17 19 20 14 15 14 12 13 8 6 10 12 15 16 16 18 16 4 9 8
23 23 22 21 20 19 18 18 18 16 17 14 17 18 17 18 20 21 22 25 28 26 18 11 6 8 11 3 13 16 15 17 14 11 12 9 7 12 13 14 13 15 15 9 6 11 11
25 25 24 22 22 20 20 19 18 18 16 16 14 18 18 17 19 22 24 32 28 8 9 10 9 8 10 13 14 15 17 18 15 13 12 12 8 12 13 12 13 7 13 16 7 7 12
27 28 28 25 24 23 24 22 21 18 17 16 14 13 17 18 16 18 19 9 5 6 9 9 9 10 17 12 3 11 18 17 13 15 16 17 12 15 18 18 19 16 8 16 7 4 6
28 29 30 29 27 27 27 25 23 21 17 16 14 11 14 16 15 15 11 7 9 7 12 17 24 24 25 20 8 13 19 17 18 20 19 17 18 18 18 18 18 16 12 18 9 12 8
29 29 31 31 30 28 27 26 25 22 20 17 14 11 11 14 9 10 12 19 19 14 8 18 22 22 25 22 21 14 21 23 20 20 20 20 18 19 16 19 15 12 16 14 9 6 11
30 30 29 29 29 28 27 26 25 23 22 19 15 13 10 8 5 11 10 15 18 9 7 13 15 10 24 21 25 24 23 24 18 23 23 19 21 15 10 13 13 15 15 5 12 10 8
31 30 30 29 28 28 27 26 25 24 23 21 18 13 11 12 11 8 8 17 3 2 7 6 22 8 8 23 6 25 25 24 25 23 15 20 19 18 14 16 17 14 2 13 12 13 13
32 31 30 30 29 28 27 26 26 25 25 22 20 14 13 6 9 16 16 15 2 5 12 7 9 11 11 20 26 9 25 22 23 24 22 22 19 19 16 16 17 13 9 10 12 11 9
32 31 31 31 30 29 28 26 25 26 26 24 22 17 14 13 8 15 3 3 7 13 8 13 14 10 14 15 23 23 23 25 23 22 21 22 24 18 15 18 17 10 9 8 10 9 7
33 32 32 32 31 30 29 28 25 25 26 24 22 18 16 14 20 10 3 7 16 21 30 5 12 18 17 15 19 22 22 23 25 24 16 17 17 23 15 19 18 15 16 8 7 4 7
35 34 33 33 32 31 30 29 27 26 27 25 23 9 10 9 19 7 3 10 17 27 21 28 24 7 14 17 17 18 24 22 23 26 21 18 22 20 17 17 18 15 16 16 18 5 3
36 35 34 34 33 32 31 30 29 28 28 28 9 8 13 17 18 8 4 10 24 28 30 27 26 22 19 16 18 17 23 18 23 26 24 19 13 21 21 18 18 17 12 11 11 10 7
36 35 35 34 35 34 33 32 31 31 31 31 9 5 9 23 10 6 13 21 27 33 26 31 24 23 21 26 16 20 22 22 25 24 24 20 14 11 17 21 18 13 12 7 16 10 6
37 37 36 37 35 34 34 33 33 35 35 23 7 8 9 16 10 8 17 39 30 23 30 29 26 25 23 19 23 17 22 18 16 25 27 25 11 13 17 14 17 17 16 17 10 9 6
37 36 37 34 35 35 35 35 37 37 39 12 7 5 9 16 14 17 22 31 32 29 31 31 28 27 23 16 12 16 21 17 16 18 25 20 18 10 17 16 19 19 19 13 15 10 12
36 33 34 31 25 23 24 32 36 37 42 13 6 7 6 13 18 27 27 32 32 32 29 30 29 28 21 20 10 13 19 15 4 9 6 8 13 21 15 14 9 14 20 17 18 9 11
31 29 26 26 28 28 27 29 34 39 42 17 6 6 9 14 20 30 26 19 34 27 31 30 28 30 25 21 10 16 21 28 11 12 8 6 16 18 21 20 20 17 20 20 20 21 17
26 25 26 25 27 28 28 26 27 30 38 18 6 5 13 12 23 27 26 30 31 28 26 32 29 30 26 22 14 18 11 15 11 10 11 5 12 15 23 21 19 22 22 20 21 22 20
27 28 28 28 28 29 29 29 28 30 29 8 4 8 11 17 23 20 25 31 35 27 22 28 32 24 25 21 11 2 5 5 11 10 8 11 10 17 19 19 13 21 21 19 16 18 17
29 30 31 31 32 32 32 32 32 31 31 5 4 9 6 11 18 24 31 35 34 31 25 23 26 28 24 12 9 9 3 8 4 14 12 12 12 11 7 2 20 10 14 16 16 16 15
31 32 32 31 33 35 35 34 36 34 33 12 5 11 7 9 18 24 31 26 28 22 25 23 24 26 18 13 2 1 2 4 4 12 17 12 10 7 9 13 13 18 13 14 13 18 18
28 27 27 27 30 33 35 35 36 35 33 15 6 11 5 13 16 29 19 25 18 19 19 22 24 17 17 11 8 9 8 6 6 6 6 18 14 8 5 15 18 5 11 12 17 13 12
24 23 23 25 27 32 33 34 35 35 33 17 7 19 7 4 12 14 14 16 20 21 15 17 21 15 17 4 3 8 8 9 7 6 5 2 8 11 10 6 7 7 13 16 17 8 7
22 20 20 17 19 28 29 33 33 34 32 17 9 19 12 2 11 9 9 12 15 17 14 14 7 4 8 11 12 8 6 8 11 10 8 7 3 4 6 8 12 6 11 17 9 6 5
7 13 15 15 22 27 29 29 31 32 31 20 4 13 9 1 1 5 4 7 13 17 12 12 14 14 4 5 6 6 3 4 6 4 5 3 8 3 5 2 5 7 15 9 6 5 7
Wind_Direction
301 301 299 299 302 310 317 298 291 298 301 304 312 315 312 318 322 321 320 316 312 311 310 315 323 326 332 276 262 136 163 159 188 208 237 222 231 236 264 301 266 248 263 295 297 320 268
293 292 292 296 298 292 296 312 306 292 293 296 300 304 307 305 314 317 318 314 309 307 303 307 316 322 286 272 266 141 190 176 210 213 232 233 248 311 321 281 287 270 306 284 278 289 352
292 288 288 288 289 293 295 288 294 301 296 291 292 296 300 305 309 313 314 312 306 300 297 299 306 303 265 249 282 313 206 211 217 212 232 235 278 291 289 298 264 276 275 271 246 243 154
287 289 284 281 281 284 290 290 286 287 295 296 289 288 295 302 306 307 311 309 304 293 291 291 288 273 259 262 281 239 222 224 222 224 249 298 300 271 276 285 290 276 258 262 174 290 96
287 284 282 286 278 273 278 281 286 286 280 288 294 285 289 298 304 308 312 307 296 284 280 262 256 216 266 246 225 237 225 219 213 223 232 246 256 260 269 254 262 253 254 245 253 241 159
285 283 281 279 277 279 270 271 273 279 285 279 288 292 284 288 301 310 317 302 278 273 240 228 248 270 245 247 229 215 218 219 205 211 216 230 240 243 235 249 248 270 282 297 209 203 193
281 278 276 275 273 270 269 269 264 266 271 281 276 289 293 286 296 307 324 318 224 192 212 231 190 232 300 212 14 212 201 208 217 207 215 219 229 235 234 238 253 282 278 260 176 264 246
279 277 276 275 271 267 264 265 264 260 258 269 274 277 295 288 293 305 302 273 318 352 292 254 251 252 255 278 273 224 189 199 213 218 213 234 224 241 241 256 266 253 273 277 161 197 228
278 275 273 271 270 267 264 262 259 256 253 254 262 262 281 297 298 288 250 260 289 321 275 280 246 243 239 229 238 238 197 204 208 223 219 226 235 227 231 249 249 256 256 258 317 257 271
279 274 270 268 266 264 262 260 257 253 250 246 248 248 264 305 279 244 248 271 243 285 278 259 243 238 222 222 236 235 205 210 226 221 228 238 235 255 225 251 237 245 234 238 256 272 268
281 275 271 267 263 258 254 251 250 249 246 242 241 230 234 215 319 282 33 344 45 224 277 241 220 141 199 200 155 211 230 199 216 222 220 234 245 239 232 233 228 240 313 278 256 270 290
279 276 273 269 264 259 253 247 240 239 239 235 232 222 216 229 251 263 308 329 186 227 241 246 142 182 198 205 220 232 204 214 223 229 231 239 235 233 217 241 244 227 196 234 258 265 267
278 276 275 270 264 259 252 246 238 232 230 231 227 215 205 229 235 253 55 312 198 224 203 248 173 186 211 206 214 237 205 210 207 215 228 226 238 229 220 229 235 224 231 241 236 233 237
276 273 271 268 261 257 252 244 235 226 222 223 227 211 219 231 241 259 31 214 219 230 234 163 225 196 208 212 209 225 220 212 208 219 216 222 226 232 210 226 232 198 234 229 259 253 275
275 272 269 265 259 253 247 241 232 221 215 215 217 219 229 206 231 233 203 223 222 232 216 246 268 259 215 217 227 210 229 212 208 219 215 217 229 222 213 217 246 215 216 245 265 140 85
272 269 266 262 257 252 245 236 228 217 208 205 208 214 221 193 198 219 197 243 233 238 246 257 244 252 266 237 223 210 221 219 214 211 228 240 225 230 212 211 214 244 245 236 232 236 234
272 268 266 261 257 249 243 233 225 213 203 199 201 212 193 179 172 213 213 222 234 229 236 240 260 274 270 255 261 223 226 224 207 219 217 231 240 239 254 208 214 214 237 212 244 235 211
270 269 260 260 253 248 242 232 227 209 197 190 191 216 182 159 191 201 220 217 236 239 233 247 252 257 265 272 265 254 233 233 221 209 212 221 229 243 267 192 215 243 224 225 245 248 261
269 262 262 253 251 244 237 232 227 208 193 185 197 171 189 167 197 211 224 235 238 238 233 238 242 242 252 274 293 295 269 261 240 209 215 199 226 229 250 215 221 220 238 225 264 237 231
267 261 259 249 233 231 237 227 219 211 195 188 175 172 166 199 211 207 207 227 235 235 240 239 247 248 245 255 243 287 307 251 257 217 241 214 205 217 229 240 223 220 235 221 226 230 240
265 258 247 239 236 238 238 237 221 210 194 186 177 195 184 188 204 213 206 228 230 238 224 238 245 254 238 248 256 278 291 294 294 290 208 165 224 210 240 240 238 216 230 229 247 209 234
259 253 247 241 237 233 226 224 213 207 196 197 169 175 192 199 201 209 204 220 232 225 227 216 235 239 246 243 212 244 293 260 250 298 234 225 219 222 249 255 239 260 259 229 221 244 253
262 257 250 243 236 230 225 221 214 202 204 199 133 209 188 206 190 201 215 220 226 228 226 230 225 237 241 243 227 215 27 318 335 332 315 228 217 221 230 235 243 251 245 254 244 230 239
262 257 251 243 234 229 223 217 213 207 202 190 196 166 207 193 190 201 210 220 225 226 235 239 231 225 235 76 95 111 55 313 329 318 311 322 238 220 221 186 236 249 240 253 264 267 272
264 259 255 248 239 227 218 214 210 209 204 209 178 201 174 204 194 201 214 219 225 231 239 234 244 231 203 117 78 249 159 201 253 292 313 297 305 220 213 231 256 238 233 238 244 254 245
268 258 252 246 238 225 216 209 205 203 201 192 188 217 197 200 196 203 204 213 218 219 231 239 244 254 204 234 162 223 198 191 165 198 249 302 290 242 206 218 228 202 250 248 242 264 256
266 251 250 248 248 218 206 200 198 194 194 185 187 215 199 182 223 205 204 208 213 216 224 230 225 244 221 160 224 248 220 223 192 171 174 217 303 239 236 234 242 201 221 246 249 251 230
268 245 256 242 232 191 192 190 188 186 182 173 202 199 192 169 182 170 198 207 228 213 213 218 187 233 230 182 206 223 233 226 233 191 163 164 257 214 226 221 240 217 230 239 236 181 262
264 273 242 226 195 178 181 180 181 176 169 159 190 205 176 209 17 122 144 228 267 251 234 194 202 188 171 240 204 209 262 190 175 200 141 206 177 266 313 311 301 203 257 280 285 284 286